, WY

(GMT )
South Pass

Weather History for KFWZ - April, 2013

Change the Weather History Date:

Sunday, April 21, 2013

  Actual Average Record
Temperature  
Mean Temperature 34 °F -  
Max Temperature 41 °F - - ()
Min Temperature 28 °F - - ()
Degree Days  
Heating Degree Days 30    
Moisture  
Dew Point 24 °F    
Average Humidity 68    
Maximum Humidity 93    
Minimum Humidity 39    
Precipitation  
Precipitation 0.00 in - - ()
Wind  
Wind Speed 13 mph (WSW)    
Max Wind Speed 33 mph    
Max Gust Speed 44 mph    
Visibility 9 miles    
Events Snow    
Averages and records for this station are not official NWS values.
T = Trace of Precipitation, MM = Missing Value Source: NWS Daily Summary

Daily Weather History Graph

Daily Weather History Graph

Search for Another Location

Airport or City:

Astronomy

Apr. 21, 2013 Rise Set
Actual Time 6:24 AM MDT 8:04 PM MDT
Civil Twilight 5:54 AM MDT 8:34 PM MDT
Nautical Twilight 5:18 AM MDT 9:10 PM MDT
Astronomical Twilight 4:39 AM MDT 9:49 PM MDT
Moon 3:47 PM MDT (4/21) 3:53 AM MDT (4/21)
Length of Visible Light 14h 39m
Length of Day
13h 40m
Waxing Gibbous, 80% of the Moon is Illuminated
Apr 21
Waxing Gibbous
Apr 25
Full
May 2
Last Quarter
May 9
New
May 17
First Quarter

Hourly Weather History & Observations

Time (MDT) Temp. Windchill Dew Point Humidity Pressure Visibility Wind Dir Wind Speed Gust Speed Precip Events Conditions
12:15 AM 32.0 °F 21.6 °F 23.0 °F 69% - 10.0 mi WSW 15.0 mph 21.9 mph N/A   Overcast
3:35 AM 30.2 °F 23.4 °F 23.0 °F 75% - 10.0 mi WSW 6.9 mph - N/A   Clear
3:55 AM 30.2 °F 23.4 °F 23.0 °F 75% - 10.0 mi WSW 6.9 mph - N/A   Clear
4:15 AM 30.2 °F 23.4 °F 23.0 °F 75% - 10.0 mi SW 6.9 mph - N/A   Clear
4:35 AM 30.2 °F 24.3 °F 23.0 °F 75% - 10.0 mi WSW 5.8 mph - N/A   Clear
5:15 AM 30.2 °F 22.6 °F 24.8 °F 80% - 10.0 mi WSW 8.1 mph - N/A   Clear
5:35 AM 30.2 °F 21.9 °F 24.8 °F 80% - 10.0 mi SW 9.2 mph - N/A   Clear
5:55 AM 28.4 °F 19.1 °F 24.8 °F 86% - 10.0 mi WSW 10.4 mph - N/A   Clear
6:15 AM 28.4 °F 19.1 °F 24.8 °F 86% - 10.0 mi WSW 10.4 mph - N/A   Clear
6:35 AM 28.4 °F 19.1 °F 24.8 °F 86% - 10.0 mi SW 10.4 mph - N/A   Clear
6:55 AM 28.4 °F 19.1 °F 24.8 °F 86% - 10.0 mi SW 10.4 mph - N/A   Clear
7:15 AM 28.4 °F 19.1 °F 24.8 °F 86% - 10.0 mi WSW 10.4 mph - N/A   Clear
7:35 AM 30.2 °F 21.3 °F 24.8 °F 80% - 10.0 mi West 10.4 mph - N/A   Clear
7:55 AM 30.2 °F 21.3 °F 24.8 °F 80% - 10.0 mi WSW 10.4 mph - N/A   Clear
8:15 AM 28.4 °F 20.4 °F 24.8 °F 86% - 10.0 mi WSW 8.1 mph - N/A   Clear
8:55 AM 32.0 °F 21.6 °F 24.8 °F 75% - 10.0 mi WSW 15.0 mph - N/A   Clear
9:15 AM 32.0 °F 22.1 °F 26.6 °F 80% - 10.0 mi WSW 13.8 mph - N/A   Clear
9:35 AM 32.0 °F 20.5 °F 26.6 °F 80% - 10.0 mi WSW 18.4 mph 21.9 mph N/A   Clear
9:55 AM 32.0 °F 20.8 °F 26.6 °F 80% - 10.0 mi WSW 17.3 mph 20.7 mph N/A   Clear
10:15 AM 32.0 °F 20.8 °F 26.6 °F 80% - 10.0 mi WSW 17.3 mph - N/A   Clear
10:35 AM 32.0 °F 20.8 °F 26.6 °F 80% - 10.0 mi SW 17.3 mph 20.7 mph N/A   Scattered Clouds
10:55 AM 33.8 °F 23.9 °F 24.8 °F 70% - 10.0 mi West 15.0 mph 19.6 mph N/A   Mostly Cloudy
11:15 AM 33.8 °F 24.8 °F 24.8 °F 70% - 10.0 mi WSW 12.7 mph 19.6 mph N/A   Mostly Cloudy
11:35 AM 33.8 °F 24.3 °F 23.0 °F 65% - 10.0 mi WSW 13.8 mph 20.7 mph N/A   Overcast
11:55 AM 35.6 °F 28.0 °F 23.0 °F 60% - 10.0 mi WSW 10.4 mph 19.6 mph N/A   Overcast
12:15 PM 37.4 °F 29.8 °F 21.2 °F 52% - 10.0 mi SW 11.5 mph 20.7 mph N/A   Overcast
12:35 PM 37.4 °F 28.2 °F 21.2 °F 52% - 10.0 mi WSW 16.1 mph 23.0 mph N/A   Mostly Cloudy
1:15 PM 37.4 °F 30.3 °F 21.2 °F 52% - 10.0 mi WSW 10.4 mph 18.4 mph N/A   Mostly Cloudy
1:35 PM 39.2 °F 32.0 °F 21.2 °F 49% - 10.0 mi SW 11.5 mph 18.4 mph N/A   Mostly Cloudy
2:15 PM 41.0 °F 32.5 °F 19.4 °F 42% - 10.0 mi WSW 17.3 mph 23.0 mph N/A   Scattered Clouds
2:35 PM 41.0 °F 33.1 °F 17.6 °F 39% - 10.0 mi WSW 15.0 mph 23.0 mph N/A   Mostly Cloudy
2:55 PM 41.0 °F 33.1 °F 19.4 °F 42% - 10.0 mi West 15.0 mph 25.3 mph N/A   Mostly Cloudy
3:15 PM 41.0 °F 32.2 °F 19.4 °F 42% - 10.0 mi WSW 18.4 mph 29.9 mph N/A   Overcast
3:35 PM 39.2 °F 29.8 °F 23.0 °F 52% - 10.0 mi West 18.4 mph 24.2 mph N/A   Mostly Cloudy
3:55 PM 39.2 °F 31.6 °F 23.0 °F 52% - 10.0 mi West 12.7 mph 24.2 mph N/A   Mostly Cloudy
4:15 PM 41.0 °F 32.5 °F 21.2 °F 45% - 10.0 mi WSW 17.3 mph 25.3 mph N/A   Scattered Clouds
4:35 PM 41.0 °F 33.9 °F 19.4 °F 42% - 10.0 mi West 12.7 mph 20.7 mph N/A   Scattered Clouds
4:55 PM 41.0 °F 32.2 °F 19.4 °F 42% - 10.0 mi WSW 18.4 mph 28.8 mph N/A   Clear
5:15 PM 41.0 °F 31.6 °F 17.6 °F 39% - 10.0 mi West 20.7 mph 28.8 mph N/A   Scattered Clouds
5:35 PM 41.0 °F 32.2 °F 17.6 °F 39% - 10.0 mi WSW 18.4 mph 28.8 mph N/A   Clear
5:55 PM 41.0 °F 33.9 °F 17.6 °F 39% - 10.0 mi West 12.7 mph 21.9 mph N/A   Scattered Clouds
6:15 PM 41.0 °F 31.9 °F 17.6 °F 39% - 10.0 mi WSW 19.6 mph 25.3 mph N/A   Scattered Clouds
6:35 PM 41.0 °F 31.6 °F 17.6 °F 39% - 10.0 mi WSW 20.7 mph 29.9 mph N/A   Scattered Clouds
6:55 PM 37.4 °F 27.8 °F 19.4 °F 48% - 10.0 mi West 17.3 mph 26.5 mph N/A   Clear
7:15 PM 35.6 °F 24.8 °F 21.2 °F 56% - 10.0 mi WSW 19.6 mph 29.9 mph N/A   Clear
7:35 PM 37.4 °F 25.4 °F 19.4 °F 48% - 10.0 mi WSW 27.6 mph 38.0 mph N/A   Clear
7:55 PM 35.6 °F 23.7 °F 21.2 °F 56% - 10.0 mi WSW 24.2 mph 36.8 mph N/A   Clear
8:15 PM 35.6 °F 22.1 °F 21.2 °F 56% - 10.0 mi WSW 32.2 mph 40.3 mph N/A   Scattered Clouds
8:35 PM 35.6 °F 21.9 °F 23.0 °F 60% - 10.0 mi West 33.4 mph 43.7 mph N/A   Scattered Clouds
8:55 PM 32.0 °F 19.5 °F 28.4 °F 87% - 2.0 mi West 21.9 mph 32.2 mph N/A Snow Light Snow
9:15 PM 32.0 °F 20.5 °F 28.4 °F 87% - 1.0 mi West 18.4 mph 29.9 mph N/A Snow Light Snow
9:35 PM 32.0 °F 20.1 °F 30.2 °F 93% - 1.0 mi WSW 19.6 mph 26.5 mph N/A Snow Light Snow
9:55 PM 32.0 °F 21.2 °F 30.2 °F 93% - 0.2 mi WSW 16.1 mph 24.2 mph N/A Snow Heavy Snow
10:15 PM 32.0 °F 20.8 °F 30.2 °F 93% - 1.2 mi WSW 17.3 mph 23.0 mph N/A Snow Light Snow
10:35 PM 32.0 °F 21.6 °F 30.2 °F 93% - 1.5 mi West 15.0 mph 20.7 mph N/A Snow Light Snow
10:55 PM 32.0 °F 22.1 °F 30.2 °F 93% - 2.5 mi WSW 13.8 mph - N/A Snow Light Snow
11:15 PM 32.0 °F 20.8 °F 30.2 °F 93% - 3.0 mi WSW 17.3 mph 25.3 mph N/A Snow Light Snow
11:35 PM 32.0 °F 20.1 °F 30.2 °F 93% - 5.0 mi WSW 19.6 mph 25.3 mph N/A Snow Light Snow
11:55 PM 32.0 °F 21.2 °F 30.2 °F 93% - 4.0 mi WSW 16.1 mph - N/A Snow Light Snow